Location: Deneb Observatory
(47.2267°N, 100.4953°W)
Time: 17:12:37
(UTC-05:00)

Iridium 66 - Visible Passes

Search period start: 28 March 2015 00:00
Search period end: 07 April 2015 00:00
Orbit: 776 x 779 km, 86.4° (Epoch: 28 March)

Date Brightness Start Highest point End Pass type
(mag) Time Alt. Az. Time Alt. Az. Time Alt. Az.
28 Mar 8.7 01:49:21 13° NE 01:49:21 13° NE 01:50:14 10° NE visible
28 Mar 7.8 03:29:49 26° N 03:29:49 26° N 03:32:06 10° N visible
29 Mar 7.9 02:56:19 26° N 02:56:19 26° N 02:58:35 10° N visible
29 Mar 8.2 04:36:47 13° NW 04:36:47 13° NW 04:37:52 10° NNW visible
30 Mar 8.2 02:22:49 23° NNE 02:22:49 23° NNE 02:24:51 10° NNE visible
30 Mar 8.0 04:03:17 19° NW 04:03:17 19° NW 04:05:13 10° NNW visible
31 Mar 8.4 01:49:19 17° NE 01:49:19 17° NE 01:50:50 10° NNE visible
31 Mar 7.8 03:29:46 25° NNW 03:29:46 25° NNW 03:32:05 10° N visible
01 Apr 8.7 01:15:48 11° NE 01:15:48 11° NE 01:16:17 10° NE visible
01 Apr 7.8 02:56:16 28° N 02:56:16 28° N 02:58:42 10° N visible
02 Apr 7.9 02:22:45 27° NNE 02:22:45 27° NNE 02:25:06 10° N visible
02 Apr 8.1 04:03:13 16° NW 04:03:13 16° NW 04:04:52 10° NNW visible
03 Apr 8.2 01:49:14 21° NE 01:49:14 21° NE 01:51:15 10° NNE visible
03 Apr 7.9 03:29:41 22° NNW 03:29:41 22° NNW 03:31:58 10° NNW visible
04 Apr 8.4 01:15:42 15° NE 01:15:42 15° NE 01:17:05 10° NNE visible
04 Apr 7.7 02:56:10 28° NNW 02:56:10 28° NNW 02:58:43 10° N visible
05 Apr 7.7 02:22:38 30° N 02:22:38 30° N 02:25:15 10° N visible
05 Apr 8.3 04:03:06 13° NW 04:03:06 13° NW 04:04:12 10° NW visible
06 Apr 7.9 01:49:05 27° NNE 01:49:05 27° NNE 01:51:33 10° NNE visible
06 Apr 8.0 03:29:33 19° NW 03:29:33 19° NW 03:31:43 10° NNW visible
